[[{"header":{"parameterUnit":"m.s-1","parameterCategory":1,"la1":30.2991,"la2":30.254,"lo1":-89.0895,"lo2":-89.0444,"dy":0.0017,"dx":0.0017,"nx":28,"ny":28,"refTime":"2025-12-14T09:00:00:Z","depth":0,"parameterNumber":2,"parameterNumberName":"U-component_of_WINDS"},"data":[0,0,0,0,0,0,0,0,0,0,0,0,0,0,0,0,0,0,0,0,0,0,0,0,0,0,0,0,0,0,0,0,0,0,0,0,0,0,0,0,0,0,0,0,0,0,0,0,0,0,0,0,0,0,0,0,0,0,-1.4916,-1.4916,0,-1.4906,-1.4906,-1.4906,-1.4867,-1.4866,-1.4866,-1.4865,-1.4856,-1.4856,-1.4857,0,0,0,0,0,0,0,0,0,0,0,0,0,-1.4903,-1.4903,-1.4916,-1.4916,-1.4916,-1.4906,-1.4906,-1.4906,-1.4867,-1.4866,-1.4865,-1.4864,-1.4856,-1.4856,-1.4857,0,0,0,0,0,0,0,0,0,0,0,0,0,-1.4902,-1.4903,-1.4916,-1.4895,-1.4893,-1.4906,-1.4906,-1.4906,-1.4868,-1.4866,-1.4865,-1.4864,-1.4855,-1.4856,-1.4857,-1.4889,0,0,-1.486,-1.486,0,0,0,0,0,0,0,0,-1.4902,-1.4903,-1.4898,-1.4897,-1.4895,-1.4886,-1.4898,-1.49,-1.4868,-1.4878,-1.4865,-1.4863,-1.4867,-1.4867,-1.4868,-1.4889,-1.4888,-1.486,-1.486,-1.4861,-1.4861,0,0,0,0,0,0,0,-1.4902,-1.4903,-1.4912,-1.4898,-1.4896,-1.4887,-1.4885,-1.4898,-1.488,-1.4877,-1.4874,-1.4873,-1.4866,-1.4867,-1.4868,-1.4888,-1.486,-1.4861,-1.4861,-1.4862,-1.4935,-1.4936,0,0,0,0,0,0,-1.4905,-1.4903,-1.4912,-1.4912,-1.4895,-1.4888,-1.4887,-1.489,-1.488,-1.4877,-1.4874,-1.4871,-1.4866,-1.4867,-1.4867,-1.4904,-1.4861,-1.4862,-1.4862,-1.4933,-1.4935,-1.4937,0,0,0,0,0,0,-1.4905,-1.4906,-1.4913,-1.4907,-1.4907,-1.489,-1.4895,-1.4891,-1.4892,-1.4878,-1.4875,-1.4879,-1.4865,-1.4866,-1.4884,-1.4904,-1.4862,-1.4863,-1.4932,-1.4934,-1.4936,-1.4979,0,0,0,0,0,0,-1.4905,-1.4907,-1.4918,-1.4907,-1.4907,-1.4929,-1.4896,-1.4892,-1.4894,-1.489,-1.4881,-1.4879,-1.4864,-1.4883,-1.4885,-1.4904,-1.4864,-1.493,-1.4933,-1.4935,-1.4976,-1.4982,-1.4988,0,0,0,0,0,-1.4905,-1.4931,-1.4919,-1.492,-1.4921,-1.493,-1.4931,-1.4913,-1.4895,-1.4907,-1.4898,-1.4879,-1.4901,-1.4885,-1.4887,-1.4907,-1.4929,-1.4932,-1.4935,-1.4973,-1.4981,-1.4988,0,0,0,0,0,0,-1.4945,-1.4929,-1.4916,-1.4939,-1.4937,-1.4924,-1.4938,-1.4922,-1.4925,-1.4921,-1.49,-1.4898,-1.4919,-1.4914,-1.4897,-1.4937,-1.4912,-1.4915,-1.494,-1.4947,-1.4953,-1.4954,-1.4864,0,0,0,0,0,-1.4957,-1.4965,-1.4951,-1.4973,-1.4972,-1.4956,-1.4959,-1.4946,-1.4942,-1.4941,-1.4933,-1.4931,-1.4937,-1.4942,-1.4946,-1.4974,-1.4972,-1.4989,-1.4995,-1.5,-1.5004,-1.5019,-1.5026,-1.4947,-1.4947,-1.4947,0,0,-1.4981,-1.4973,-1.498,-1.4981,-1.4977,-1.4987,-1.4955,-1.4966,-1.4973,-1.4943,-1.4959,-1.4953,-1.4949,-1.4973,-1.4983,-1.4969,-1.5025,-1.5004,-1.5008,-1.5009,-1.5023,-1.5031,-1.5037,-1.4949,-1.4949,-1.4949,0,0,-1.503,-1.5025,-1.5043,-1.504,-1.5035,-1.5023,-1.5028,-1.5018,-1.5013,-1.5029,-1.5006,-1.5014,-1.5025,-1.5024,-1.5024,-1.5073,-1.5056,-1.5075,-1.5107,-1.5122,-1.5129,-1.5134,-1.5152,-1.5159,-1.5079,-1.5079,-1.5079,0,-1.5061,-1.5075,-1.5055,-1.5068,-1.5069,-1.5041,-1.506,-1.5057,-1.5054,-1.5056,-1.5041,-1.5055,-1.505,-1.5073,-1.5085,-1.5086,-1.5091,-1.5076,-1.5129,-1.5134,-1.5139,-1.5157,-1.5163,-1.5081,-1.5081,-1.5081,-1.508,0,-1.5113,-1.5123,-1.5138,-1.5136,-1.5139,-1.5154,-1.5137,-1.5143,-1.5129,-1.512,-1.5137,-1.513,-1.5133,-1.5138,-1.5124,-1.5159,-1.5151,-1.5133,-1.5107,-1.515,-1.5166,-1.5172,-1.5085,-1.5084,-1.5083,-1.5082,0,0,-1.5189,-1.5175,-1.5181,-1.518,-1.5172,-1.5179,-1.5193,-1.5196,-1.5202,-1.52,-1.5213,-1.5223,-1.5206,-1.5207,-1.5193,-1.5206,-1.5246,-1.5186,-1.5186,-1.5199,-1.5285,-1.5299,-1.5307,-1.5234,-1.5235,-1.5236,-1.5285,0,-1.5237,-1.5261,-1.5243,-1.527,-1.528,-1.5253,-1.5266,-1.5262,-1.5254,-1.5261,-1.5251,-1.5259,-1.5236,-1.5236,-1.5248,-1.5239,-1.5263,-1.5235,-1.5247,-1.5247,-1.525,-1.5315,-1.5331,-1.5377,-1.5291,-1.5292,-1.5293,0,-1.5296,-1.5297,-1.5325,-1.5316,-1.5319,-1.5331,-1.5332,-1.5339,-1.5335,-1.5327,-1.5328,-1.5311,-1.5325,-1.5299,-1.5319,-1.53,-1.5303,-1.53,-1.5301,-1.5303,-1.5274,-1.532,-1.5392,-1.5399,-1.5303,-1.5302,-1.5301,0,-1.535,-1.5358,-1.5376,-1.5376,-1.5365,-1.5374,-1.537,-1.5364,-1.5367,-1.5368,-1.537,-1.5373,-1.5375,-1.5378,-1.5363,-1.5345,-1.5385,-1.5357,-1.538,-1.5381,-1.5391,-1.5391,-1.5466,-1.5392,-1.5391,-1.5391,-1.5391,0,-1.5406,-1.5425,-1.54,-1.5412,-1.5432,-1.5411,-1.5432,-1.5425,-1.542,-1.543,-1.5407,-1.5417,-1.5395,-1.5403,-1.5391,-1.541,-1.541,-1.5406,-1.5403,-1.5409,-1.5409,-1.5412,-1.5409,-1.5393,-1.5393,-1.5392,-1.5392,0,-1.547,-1.5454,-1.5472,-1.546,-1.5458,-1.5473,-1.5463,-1.5473,-1.5463,-1.5476,-1.5478,-1.5462,-1.547,-1.5454,-1.546,-1.5452,-1.5479,-1.547,-1.548,-1.5478,-1.5503,-1.5501,-1.5583,-1.5593,-1.5511,-1.5512,-1.5512,0,-1.5507,-1.5521,-1.551,-1.5515,-1.5512,-1.552,-1.5523,-1.5503,-1.5507,-1.5504,-1.5515,-1.552,-1.5524,-1.5538,-1.5528,-1.5532,-1.5524,-1.5552,-1.5525,-1.5531,-1.5526,-1.5526,-1.5528,-1.5559,-1.556,-1.556,-1.5561,0,-1.5576,-1.5567,-1.5572,-1.5575,-1.5579,-1.558,-1.5579,-1.5584,-1.5563,-1.5569,-1.5577,-1.558,-1.5586,-1.5592,-1.5594,-1.559,-1.5573,-1.557,-1.5575,-1.5583,-1.5589,-1.5587,-1.5497,-1.5568,-1.5567,-1.5567,-1.5567,-1.5566,-1.5629,-1.564,-1.5634,-1.564,-1.5638,-1.5638,-1.5647,-1.5637,-1.5643,-1.5647,-1.5634,-1.5645,-1.5641,-1.5642,-1.564,-1.5648,-1.5636,-1.5644,-1.5646,-1.5649,-1.5653,-1.5586,-1.5648,-1.5648,-1.5648,-1.5648,-1.5647,0,-1.5697,-1.5692,-1.5698,-1.5698,-1.5703,-1.5685,-1.5683,-1.5689,-1.5698,-1.5695,-1.57,-1.5709,-1.5715,-1.5705,-1.5709,-1.5718,-1.571,-1.572,-1.572,-1.572,-1.5664,-1.5659,-1.5726,-1.5726,-1.5726,-1.5726,-1.5726,-1.5726,-1.5733,-1.5752,-1.5743,-1.5759,-1.5754,-1.5764,-1.5765,-1.5765,-1.5763,-1.5774,-1.5779,-1.5772,-1.5766,-1.577,-1.5775,-1.5772,-1.5775,-1.5789,-1.5783,-1.5731,-1.5723,-1.5716,-1.5711,-1.5789,-1.5789,-1.5838,-1.5839,-1.5839]},{"header":{"parameterUnit":"m.s-1","parameterCategory":1,"la1":30.2991,"la2":30.254,"lo1":-89.0895,"lo2":-89.0444,"dy":0.0017,"dx":0.0017,"nx":28,"ny":28,"refTime":"2025-12-14T09:00:00:Z","depth":0,"parameterNumber":3,"parameterNumberName":"V-component_of_WINDS"},"data":[0,0,0,0,0,0,0,0,0,0,0,0,0,0,0,0,0,0,0,0,0,0,0,0,0,0,0,0,0,0,0,0,0,0,0,0,0,0,0,0,0,0,0,0,0,0,0,0,0,0,0,0,0,0,0,0,0,0,-1.861,-1.861,0,-1.8622,-1.8622,-1.8622,-1.8607,-1.8606,-1.8606,-1.8605,-1.8616,-1.8616,-1.8617,0,0,0,0,0,0,0,0,0,0,0,0,0,-1.8572,-1.8573,-1.861,-1.861,-1.861,-1.8622,-1.8622,-1.8622,-1.8607,-1.8606,-1.8606,-1.8605,-1.8615,-1.8616,-1.8617,0,0,0,0,0,0,0,0,0,0,0,0,0,-1.8587,-1.8573,-1.861,-1.8604,-1.8604,-1.8622,-1.8622,-1.8622,-1.8607,-1.8606,-1.8605,-1.8605,-1.8615,-1.8616,-1.8617,-1.8641,0,0,-1.8621,-1.8621,0,0,0,0,0,0,0,0,-1.8586,-1.8588,-1.8605,-1.8605,-1.8604,-1.8612,-1.8612,-1.8628,-1.8607,-1.8606,-1.8605,-1.8604,-1.8615,-1.8616,-1.862,-1.8642,-1.8642,-1.8621,-1.8622,-1.8622,-1.8623,0,0,0,0,0,0,0,-1.8585,-1.8588,-1.8615,-1.8605,-1.8605,-1.86,-1.8601,-1.8615,-1.8615,-1.8606,-1.8605,-1.8607,-1.8615,-1.8619,-1.862,-1.8642,-1.8621,-1.8622,-1.8623,-1.8623,-1.8684,-1.8685,0,0,0,0,0,0,-1.8585,-1.8587,-1.8614,-1.8615,-1.8593,-1.8602,-1.8603,-1.861,-1.8615,-1.8614,-1.8607,-1.8606,-1.8617,-1.8619,-1.862,-1.8649,-1.8622,-1.8623,-1.8624,-1.8683,-1.8684,-1.8685,0,0,0,0,0,0,-1.8584,-1.8588,-1.8614,-1.8601,-1.8604,-1.8603,-1.8612,-1.8611,-1.8615,-1.8616,-1.8615,-1.8612,-1.8617,-1.8619,-1.8636,-1.865,-1.8624,-1.8625,-1.8682,-1.8684,-1.8685,-1.8707,0,0,0,0,0,0,-1.8583,-1.8587,-1.8597,-1.8601,-1.8604,-1.863,-1.8612,-1.8612,-1.8618,-1.8616,-1.862,-1.862,-1.8616,-1.8635,-1.8638,-1.8651,-1.8626,-1.8681,-1.8683,-1.8685,-1.8705,-1.8709,-1.8712,0,0,0,0,0,-1.8582,-1.8602,-1.8597,-1.8601,-1.8616,-1.8631,-1.8633,-1.8629,-1.8619,-1.8628,-1.8628,-1.862,-1.8647,-1.8637,-1.864,-1.8653,-1.868,-1.8682,-1.8684,-1.8704,-1.8708,-1.8712,0,0,0,0,0,0,-1.8599,-1.8602,-1.8597,-1.862,-1.8625,-1.8628,-1.864,-1.8634,-1.8642,-1.864,-1.8634,-1.8635,-1.8654,-1.8655,-1.8643,-1.8677,-1.8662,-1.8665,-1.8676,-1.868,-1.8684,-1.8683,-1.8627,0,0,0,0,0,-1.8605,-1.8617,-1.8619,-1.8639,-1.8642,-1.8641,-1.8647,-1.8643,-1.8648,-1.865,-1.8652,-1.8657,-1.8667,-1.8673,-1.8682,-1.8705,-1.8706,-1.8716,-1.8719,-1.8722,-1.8725,-1.8738,-1.8743,-1.8692,-1.8692,-1.8692,0,0,-1.8618,-1.8622,-1.863,-1.8642,-1.8646,-1.8659,-1.8643,-1.8656,-1.8665,-1.8652,-1.867,-1.8671,-1.8675,-1.8696,-1.8705,-1.8698,-1.8739,-1.8725,-1.8727,-1.8729,-1.8741,-1.8745,-1.875,-1.8694,-1.8693,-1.8693,0,0,-1.8649,-1.8653,-1.867,-1.8674,-1.868,-1.8679,-1.8683,-1.8688,-1.8688,-1.8705,-1.8696,-1.8706,-1.8723,-1.8727,-1.8732,-1.8764,-1.8757,-1.8767,-1.8786,-1.8799,-1.8803,-1.8806,-1.8819,-1.8823,-1.8769,-1.8769,-1.8769,0,-1.8664,-1.8683,-1.8679,-1.8694,-1.87,-1.8689,-1.8706,-1.871,-1.8719,-1.8723,-1.8714,-1.8736,-1.8738,-1.876,-1.8768,-1.8772,-1.8776,-1.8767,-1.8803,-1.8806,-1.8809,-1.8821,-1.8826,-1.8771,-1.8771,-1.877,-1.877,0,-1.8703,-1.8716,-1.8729,-1.8739,-1.8746,-1.8761,-1.8759,-1.8766,-1.8762,-1.8762,-1.8779,-1.8782,-1.8792,-1.8796,-1.8792,-1.8818,-1.8813,-1.8804,-1.8789,-1.8816,-1.8827,-1.8831,-1.8773,-1.8772,-1.8772,-1.8771,0,0,-1.8745,-1.8752,-1.8757,-1.8762,-1.8768,-1.8778,-1.8793,-1.8803,-1.881,-1.8816,-1.8829,-1.8843,-1.8835,-1.884,-1.8836,-1.8847,-1.8873,-1.8836,-1.8836,-1.8844,-1.8903,-1.8911,-1.8916,-1.8868,-1.8869,-1.8869,-1.8903,0,-1.8777,-1.8804,-1.88,-1.8826,-1.8839,-1.8829,-1.8842,-1.8847,-1.8847,-1.8857,-1.8856,-1.8867,-1.8855,-1.8858,-1.8868,-1.8868,-1.8885,-1.8865,-1.888,-1.8881,-1.8881,-1.8922,-1.8931,-1.8962,-1.8907,-1.8908,-1.8908,0,-1.8818,-1.8827,-1.8854,-1.8859,-1.8864,-1.8876,-1.8886,-1.8895,-1.89,-1.8899,-1.8905,-1.8899,-1.8914,-1.8898,-1.8918,-1.8905,-1.891,-1.8911,-1.8912,-1.8914,-1.8897,-1.8927,-1.8972,-1.8977,-1.8915,-1.8914,-1.8914,0,-1.8848,-1.8866,-1.8885,-1.8889,-1.8895,-1.8904,-1.8906,-1.8911,-1.8918,-1.8925,-1.8929,-1.8938,-1.8944,-1.895,-1.8947,-1.8935,-1.8968,-1.8952,-1.8968,-1.8968,-1.8977,-1.8976,-1.9025,-1.8978,-1.8978,-1.8978,-1.8978,0,-1.8884,-1.8902,-1.8899,-1.8911,-1.893,-1.8925,-1.8944,-1.8945,-1.8949,-1.8961,-1.8952,-1.8963,-1.8957,-1.8967,-1.8964,-1.8982,-1.8984,-1.8984,-1.8983,-1.8986,-1.8986,-1.899,-1.8988,-1.8979,-1.8979,-1.8978,-1.8978,0,-1.8921,-1.892,-1.8941,-1.8945,-1.8946,-1.896,-1.8963,-1.8974,-1.8973,-1.8988,-1.8991,-1.899,-1.9002,-1.8998,-1.9011,-1.9009,-1.9032,-1.9027,-1.903,-1.903,-1.9047,-1.9046,-1.9101,-1.9109,-1.9056,-1.9056,-1.9056,0,-1.8946,-1.8959,-1.8965,-1.8973,-1.8976,-1.8988,-1.8995,-1.8991,-1.8998,-1.9005,-1.9015,-1.9027,-1.9035,-1.9055,-1.9054,-1.9064,-1.9061,-1.9079,-1.9062,-1.9064,-1.9062,-1.9062,-1.9064,-1.9083,-1.9084,-1.9084,-1.9085,0,-1.8989,-1.8988,-1.8999,-1.901,-1.9018,-1.9026,-1.9033,-1.904,-1.9035,-1.9044,-1.9057,-1.9064,-1.9077,-1.9088,-1.9097,-1.9099,-1.9091,-1.909,-1.9094,-1.9098,-1.91,-1.91,-1.9041,-1.9089,-1.9088,-1.9088,-1.9088,-1.9088,-1.9022,-1.9034,-1.904,-1.9052,-1.9057,-1.9064,-1.9075,-1.9076,-1.9086,-1.9097,-1.9093,-1.9108,-1.9112,-1.9124,-1.9127,-1.9138,-1.9131,-1.9137,-1.9139,-1.9141,-1.9144,-1.9097,-1.9139,-1.9139,-1.9139,-1.9139,-1.9139,0,-1.9066,-1.907,-1.9081,-1.9092,-1.9101,-1.9094,-1.9101,-1.9109,-1.9123,-1.9128,-1.9137,-1.9152,-1.9163,-1.9163,-1.9173,-1.9182,-1.9179,-1.9185,-1.9185,-1.9186,-1.9149,-1.9145,-1.9187,-1.9187,-1.9187,-1.9187,-1.9187,-1.9187,-1.909,-1.9111,-1.911,-1.9132,-1.9135,-1.915,-1.9155,-1.9161,-1.9166,-1.9183,-1.9192,-1.9193,-1.9196,-1.9207,-1.9216,-1.9216,-1.9221,-1.9229,-1.9227,-1.9193,-1.9188,-1.9184,-1.918,-1.9229,-1.9229,-1.9263,-1.9264,-1.9264]}]]